Camp Douglas, WI

11:53 AM CST on February 28, 2017 (GMT -0600)
Volk

Weather History for KVOK - November, 2012

Change the Weather History Date:

Thursday, November 1, 2012

  Actual Average Record
Temperature  
Mean Temperature 38 °F -  
Max Temperature 51 °F 48 °F 73 °F (2000)
Min Temperature 24 °F 35 °F 13 °F (2014)
Degree Days  
Heating Degree Days 27    
Moisture  
Dew Point 23 °F    
Average Humidity 56    
Maximum Humidity 92    
Minimum Humidity 37    
Precipitation  
Precipitation 0.00 in - - ()
Sea Level Pressure  
Sea Level Pressure 29.92 in    
Wind  
Wind Speed 8 mph (NW)    
Max Wind Speed 17 mph    
Max Gust Speed 21 mph    
Visibility 10 miles    
Events      
Averages and records for this station are not official NWS values.
T = Trace of Precipitation, MM = Missing Value Source: NWS Daily Summary

Daily Weather History Graph

Daily Weather History Graph

Search for Another Location

Airport or City:

Trip Planner

Search our weather history database for the weather conditions in past years. The results will help you decide how hot, cold, wet, or windy it might be!

Date:

Astronomy

Nov. 01, 2012 Rise Set
Actual Time 7:38 AM CDT 5:50 PM CDT
Civil Twilight 7:07 AM CDT 6:20 PM CDT
Nautical Twilight 6:33 AM CDT 6:54 PM CDT
Astronomical Twilight 6:00 AM CDT 7:28 PM CDT
Moon 7:43 PM CDT (11/1) 10:15 AM CDT (11/1)
Length of Visible Light 11h 12m
Length of Day
10h 12m
Waning Gibbous, 93% of the Moon is Illuminated
Nov 1
Waning Gibbous
Nov 6
Last Quarter
Nov 13
New
Nov 20
First Quarter
Nov 28
Full

Hourly Weather History & Observations

Time (CDT) Temp. Windchill Dew Point Humidity Pressure Visibility Wind Dir Wind Speed Gust Speed Precip Events Conditions
12:55 AM 26.4 °F 17.3 °F 16.2 °F 65% 29.91 in 10.0 mi WNW 9.2 mph - N/A   Scattered Clouds
1:55 AM 34.7 °F 28.1 °F 18.5 °F 52% 29.90 in 10.0 mi WNW 8.1 mph - N/A   Overcast
2:55 AM 34.7 °F 28.8 °F 15.8 °F 46% 29.89 in 10.0 mi West 6.9 mph - N/A   Overcast
3:55 AM 32.2 °F 25.8 °F 14.9 °F 49% 29.88 in 10.0 mi WNW 6.9 mph - N/A   Scattered Clouds
4:55 AM 31.6 °F 27.0 °F 16.3 °F 53% 29.88 in 10.0 mi West 4.6 mph - N/A   Mostly Cloudy
5:55 AM 36.7 °F 31.2 °F 17.8 °F 46% 29.90 in 10.0 mi WNW 6.9 mph - N/A   Overcast
6:55 AM 30.2 °F 25.4 °F 15.8 °F 55% 29.90 in 10.0 mi West 4.6 mph - N/A   Scattered Clouds
7:35 AM 30.2 °F 24.3 °F 17.6 °F 60% 29.86 in 10.0 mi West 5.8 mph - N/A   Mostly Cloudy
7:55 AM 32.0 °F 26.4 °F 19.4 °F 60% 29.91 in 10.0 mi WNW 5.8 mph - N/A   Mostly Cloudy
8:55 AM 39.2 °F 33.6 °F 21.2 °F 49% 29.91 in 10.0 mi WNW 8.1 mph - N/A   Mostly Cloudy
9:55 AM 44.6 °F 38.8 °F 19.4 °F 37% 29.91 in 10.0 mi WNW 11.5 mph - N/A   Mostly Cloudy
10:55 AM 46.4 °F 41.5 °F 24.8 °F 43% 29.92 in 10.0 mi NNW 10.4 mph - N/A   Mostly Cloudy
11:55 AM 48.2 °F - 28.4 °F 46% 29.91 in 10.0 mi NNW 13.8 mph - N/A   Scattered Clouds
12:55 PM 50.0 °F - 28.4 °F 43% 29.89 in 10.0 mi WNW 13.8 mph 18.4 mph N/A   Scattered Clouds
1:55 PM 50.0 °F - 28.4 °F 43% 29.88 in 10.0 mi NNW 11.5 mph 17.3 mph N/A   Mostly Cloudy
2:55 PM 48.2 °F - 30.2 °F 50% 29.88 in 10.0 mi WNW 10.4 mph 19.6 mph N/A   Mostly Cloudy
3:55 PM 46.4 °F 39.5 °F 28.4 °F 50% 29.90 in 10.0 mi NNW 17.3 mph 20.7 mph N/A   Mostly Cloudy
4:55 PM 46.4 °F 41.5 °F 26.6 °F 46% 29.90 in 10.0 mi NW 10.4 mph - N/A   Mostly Cloudy
5:55 PM 42.8 °F 38.6 °F 27.3 °F 54% 29.92 in 10.0 mi NNW 6.9 mph - N/A   Mostly Cloudy
6:55 PM 41.0 °F 36.4 °F 28.4 °F 61% 29.95 in 10.0 mi NW 6.9 mph - N/A   Mostly Cloudy
7:55 PM 39.2 °F 33.6 °F 28.4 °F 65% 29.96 in 10.0 mi North 8.1 mph - N/A   Mostly Cloudy
8:55 PM 35.6 °F 29.2 °F 28.4 °F 75% 29.98 in 10.0 mi NNW 8.1 mph - N/A   Scattered Clouds
9:55 PM 33.6 °F 26.8 °F 27.9 °F 79% 29.99 in 10.0 mi NW 8.1 mph - N/A   Clear
10:55 PM 28.4 °F 22.2 °F 24.8 °F 86% 30.00 in 10.0 mi WNW 5.8 mph - N/A   Clear
11:55 PM 24.3 °F 16.3 °F 22.3 °F 92% 30.01 in 10.0 mi WNW 6.9 mph - N/A   Clear